Year,Month,Day,Hour,Minute,Value (Times are PST for temperature in C)
2017,04,22,00,00,14.20
2017,04,22,00,01,14.20
2017,04,22,00,02,14.20
2017,04,22,00,03,14.20
2017,04,22,00,04,14.20
2017,04,22,00,05,14.20
2017,04,22,00,06,14.20
2017,04,22,00,07,14.30
2017,04,22,00,08,14.30
2017,04,22,00,09,14.30
2017,04,22,00,10,14.30
2017,04,22,00,11,14.30
2017,04,22,00,12,14.30
2017,04,22,00,13,14.30
2017,04,22,00,14,14.30
2017,04,22,00,15,14.30
2017,04,22,00,16,14.30
2017,04,22,00,17,14.30
2017,04,22,00,18,14.30
2017,04,22,00,19,14.30
2017,04,22,00,20,14.40
2017,04,22,00,21,14.40
2017,04,22,00,22,14.40
2017,04,22,00,23,14.50
2017,04,22,00,24,14.50
2017,04,22,00,25,14.50
2017,04,22,00,26,14.50
2017,04,22,00,27,14.40
2017,04,22,00,28,14.40
2017,04,22,00,29,14.40
2017,04,22,00,30,14.40
2017,04,22,00,31,14.40
2017,04,22,00,32,14.40
2017,04,22,00,33,14.40
2017,04,22,00,34,14.40
2017,04,22,00,35,14.30
2017,04,22,00,36,14.30
2017,04,22,00,37,14.30
2017,04,22,00,38,14.30
2017,04,22,00,39,14.30
2017,04,22,00,40,14.30
2017,04,22,00,41,14.30
2017,04,22,00,42,14.40
2017,04,22,00,43,14.40
2017,04,22,00,44,14.40
2017,04,22,00,45,14.40
2017,04,22,00,46,14.40
2017,04,22,00,47,14.40
2017,04,22,00,48,14.40
2017,04,22,00,49,14.40
2017,04,22,00,50,14.40
2017,04,22,00,51,14.40
2017,04,22,00,52,14.50
2017,04,22,00,53,14.50
2017,04,22,00,54,14.50
2017,04,22,00,55,14.60
2017,04,22,00,56,14.60
2017,04,22,00,57,14.60
2017,04,22,00,58,14.60
2017,04,22,00,59,14.60
2017,04,22,01,00,14.50
2017,04,22,01,01,14.50
2017,04,22,01,02,14.60
2017,04,22,01,03,14.60
2017,04,22,01,04,14.60
2017,04,22,01,05,14.60
2017,04,22,01,06,14.60
2017,04,22,01,07,14.50
2017,04,22,01,08,14.50
2017,04,22,01,09,14.60
2017,04,22,01,10,14.60
2017,04,22,01,11,14.60
2017,04,22,01,12,14.60
2017,04,22,01,13,14.60
2017,04,22,01,14,14.60
2017,04,22,01,15,14.50
2017,04,22,01,16,14.50
2017,04,22,01,17,14.50
2017,04,22,01,18,14.50
2017,04,22,01,19,14.50
2017,04,22,01,20,14.50
2017,04,22,01,21,14.50
2017,04,22,01,22,14.50
2017,04,22,01,23,14.50
2017,04,22,01,24,14.40
2017,04,22,01,25,14.40
2017,04,22,01,26,14.40
2017,04,22,01,27,14.30
2017,04,22,01,28,14.30
2017,04,22,01,29,14.40
2017,04,22,01,30,14.40
2017,04,22,01,31,14.40
2017,04,22,01,32,14.50
2017,04,22,01,33,14.60
2017,04,22,01,34,14.70
2017,04,22,01,35,14.80
2017,04,22,01,36,14.80
2017,04,22,01,37,14.90
2017,04,22,01,38,15.00
2017,04,22,01,39,15.20
2017,04,22,01,40,15.20
2017,04,22,01,41,15.20
2017,04,22,01,42,15.20
2017,04,22,01,43,15.20
2017,04,22,01,44,15.30
2017,04,22,01,45,15.30
2017,04,22,01,46,15.30
2017,04,22,01,47,15.30
2017,04,22,01,48,15.30
2017,04,22,01,49,15.40
2017,04,22,01,50,15.40
2017,04,22,01,51,15.40
2017,04,22,01,52,15.40
2017,04,22,01,53,15.50
2017,04,22,01,54,15.50
2017,04,22,01,55,15.60
2017,04,22,01,56,15.70
2017,04,22,01,57,15.70
2017,04,22,01,58,15.70
2017,04,22,01,59,15.60
2017,04,22,02,00,15.60
2017,04,22,02,01,15.60
2017,04,22,02,02,15.60
2017,04,22,02,03,15.60
2017,04,22,02,04,15.60
2017,04,22,02,05,15.60
2017,04,22,02,06,15.50
2017,04,22,02,07,15.50
2017,04,22,02,08,15.50
2017,04,22,02,09,15.50
2017,04,22,02,10,15.50
2017,04,22,02,11,15.50
2017,04,22,02,12,15.50
2017,04,22,02,13,15.50
2017,04,22,02,14,15.60
2017,04,22,02,15,15.60
2017,04,22,02,16,15.60
2017,04,22,02,17,15.60
2017,04,22,02,18,15.60
2017,04,22,02,19,15.60
2017,04,22,02,20,15.60
2017,04,22,02,21,15.60
2017,04,22,02,22,15.60
2017,04,22,02,23,15.60
2017,04,22,02,24,15.60
2017,04,22,02,25,15.60
2017,04,22,02,26,15.60
2017,04,22,02,27,15.60
2017,04,22,02,28,15.50
2017,04,22,02,29,15.50
2017,04,22,02,30,15.50
2017,04,22,02,31,15.40
2017,04,22,02,32,15.40
2017,04,22,02,33,15.30
2017,04,22,02,34,15.30
2017,04,22,02,35,15.30
2017,04,22,02,36,15.30
2017,04,22,02,37,15.20
2017,04,22,02,38,15.20
2017,04,22,02,39,15.10
2017,04,22,02,40,15.10
2017,04,22,02,41,15.00
2017,04,22,02,42,15.00
2017,04,22,02,43,14.90
2017,04,22,02,44,14.80
2017,04,22,02,45,14.80
2017,04,22,02,46,14.80
2017,04,22,02,47,14.80
2017,04,22,02,48,14.80
2017,04,22,02,49,14.80
2017,04,22,02,50,14.80
2017,04,22,02,51,14.80
2017,04,22,02,52,14.80
2017,04,22,02,53,14.80
2017,04,22,02,54,14.80
2017,04,22,02,55,14.80
2017,04,22,02,56,14.80
2017,04,22,02,57,14.80
2017,04,22,02,58,14.80
2017,04,22,02,59,14.70
2017,04,22,03,00,14.70
2017,04,22,03,01,14.70
2017,04,22,03,02,14.70
2017,04,22,03,03,14.70
2017,04,22,03,04,14.70
2017,04,22,03,05,14.70
2017,04,22,03,06,14.70
2017,04,22,03,07,14.80
2017,04,22,03,08,14.80
2017,04,22,03,09,14.80
2017,04,22,03,10,14.80
2017,04,22,03,11,14.80
2017,04,22,03,12,14.80
2017,04,22,03,13,14.80
2017,04,22,03,14,14.80
2017,04,22,03,15,14.90
2017,04,22,03,16,14.90
2017,04,22,03,17,15.00
2017,04,22,03,18,15.10
2017,04,22,03,19,15.10
2017,04,22,03,20,15.10
2017,04,22,03,21,15.20
2017,04,22,03,22,15.20
2017,04,22,03,23,15.30
2017,04,22,03,24,15.30
2017,04,22,03,25,15.30
2017,04,22,03,26,15.30
2017,04,22,03,27,15.30
2017,04,22,03,28,15.30
2017,04,22,03,29,15.20
2017,04,22,03,30,15.20
2017,04,22,03,31,15.20
2017,04,22,03,32,15.20
2017,04,22,03,33,15.20
2017,04,22,03,34,15.20
2017,04,22,03,35,15.10
2017,04,22,03,36,15.20
2017,04,22,03,37,15.10
2017,04,22,03,38,15.10
2017,04,22,03,39,15.10
2017,04,22,03,40,15.00
2017,04,22,03,41,15.00
2017,04,22,03,42,14.90
2017,04,22,03,43,14.80
2017,04,22,03,44,14.80
2017,04,22,03,45,14.70
2017,04,22,03,46,14.60
2017,04,22,03,47,14.60
2017,04,22,03,48,14.60
2017,04,22,03,49,14.60
2017,04,22,03,50,14.50
2017,04,22,03,51,14.50
2017,04,22,03,52,14.60
2017,04,22,03,53,14.60
2017,04,22,03,54,14.60
2017,04,22,03,55,14.60
2017,04,22,03,56,14.60
2017,04,22,03,57,14.60
2017,04,22,03,58,14.60
2017,04,22,03,59,14.60
2017,04,22,04,00,14.50
2017,04,22,04,01,14.50
2017,04,22,04,02,14.50
2017,04,22,04,03,14.60
2017,04,22,04,04,14.60
2017,04,22,04,05,14.60
2017,04,22,04,06,14.50
2017,04,22,04,07,14.50
2017,04,22,04,08,14.50
2017,04,22,04,09,14.40
2017,04,22,04,10,14.40
2017,04,22,04,11,14.40
2017,04,22,04,12,14.30
2017,04,22,04,13,14.40
2017,04,22,04,14,14.40
2017,04,22,04,15,14.40
2017,04,22,04,16,14.30
2017,04,22,04,17,14.30
2017,04,22,04,18,14.30
2017,04,22,04,19,14.30
2017,04,22,04,20,14.30
2017,04,22,04,21,14.30
2017,04,22,04,22,14.30
2017,04,22,04,23,14.30
2017,04,22,04,24,14.30
2017,04,22,04,25,14.30
2017,04,22,04,26,14.30
2017,04,22,04,27,14.30
2017,04,22,04,28,14.30
2017,04,22,04,29,14.30
2017,04,22,04,30,14.20
2017,04,22,04,31,14.20
2017,04,22,04,32,14.30
2017,04,22,04,33,14.30
2017,04,22,04,34,14.40
2017,04,22,04,35,14.40
2017,04,22,04,36,14.40
2017,04,22,04,37,14.40
2017,04,22,04,38,14.40
2017,04,22,04,39,14.40
2017,04,22,04,40,14.40
2017,04,22,04,41,14.40
2017,04,22,04,42,14.40
2017,04,22,04,43,14.30
2017,04,22,04,44,14.30
2017,04,22,04,45,14.30
2017,04,22,04,46,14.40
2017,04,22,04,47,14.40
2017,04,22,04,48,14.40
2017,04,22,04,49,14.50
2017,04,22,04,50,14.50
2017,04,22,04,51,14.60
2017,04,22,04,52,14.60
2017,04,22,04,53,14.60
2017,04,22,04,54,14.60
2017,04,22,04,55,14.70
2017,04,22,04,56,14.70
2017,04,22,04,57,14.70
2017,04,22,04,58,14.60
2017,04,22,04,59,14.60
2017,04,22,05,00,14.60
2017,04,22,05,01,14.60
2017,04,22,05,02,14.60
2017,04,22,05,03,14.60
2017,04,22,05,04,14.60
2017,04,22,05,05,14.60
2017,04,22,05,06,14.60
2017,04,22,05,07,14.60
2017,04,22,05,08,14.60
2017,04,22,05,09,14.60
2017,04,22,05,10,14.60
2017,04,22,05,11,14.60
2017,04,22,05,12,14.60
2017,04,22,05,13,14.50
2017,04,22,05,14,14.50
2017,04,22,05,15,14.40
2017,04,22,05,16,14.40
2017,04,22,05,17,14.40
2017,04,22,05,18,14.40
2017,04,22,05,19,14.40
2017,04,22,05,20,14.40
2017,04,22,05,21,14.40
2017,04,22,05,22,14.40
2017,04,22,05,23,14.40
2017,04,22,05,24,14.40
2017,04,22,05,25,14.40
2017,04,22,05,26,14.40
2017,04,22,05,27,14.40
2017,04,22,05,28,14.30
2017,04,22,05,29,14.30
2017,04,22,05,30,14.30
2017,04,22,05,31,14.30
2017,04,22,05,32,14.30
2017,04,22,05,33,14.20
2017,04,22,05,34,14.20
2017,04,22,05,35,14.20
2017,04,22,05,36,14.20
2017,04,22,05,37,14.10
2017,04,22,05,38,14.10
2017,04,22,05,39,14.10
2017,04,22,05,40,14.00
2017,04,22,05,41,14.00
2017,04,22,05,42,14.00
2017,04,22,05,43,14.00
2017,04,22,05,44,14.10
2017,04,22,05,45,14.00
2017,04,22,05,46,14.00
2017,04,22,05,47,14.00
2017,04,22,05,48,14.00
2017,04,22,05,49,14.10
2017,04,22,05,50,14.10
2017,04,22,05,51,14.10
2017,04,22,05,52,14.00
2017,04,22,05,53,14.00
2017,04,22,05,54,14.00
2017,04,22,05,55,14.00
2017,04,22,05,56,14.00
2017,04,22,05,57,14.00
2017,04,22,05,58,14.10
2017,04,22,05,59,14.10
2017,04,22,06,00,14.10
2017,04,22,06,01,14.10
2017,04,22,06,02,14.10
2017,04,22,06,03,14.10
2017,04,22,06,04,14.10
2017,04,22,06,05,14.10
2017,04,22,06,06,14.10
2017,04,22,06,07,14.10
2017,04,22,06,08,14.10
2017,04,22,06,09,14.00
2017,04,22,06,10,14.00
2017,04,22,06,11,14.10
2017,04,22,06,12,14.10
2017,04,22,06,13,14.10
2017,04,22,06,14,14.10
2017,04,22,06,15,14.10
2017,04,22,06,16,14.10
2017,04,22,06,17,14.20
2017,04,22,06,18,14.20
2017,04,22,06,19,14.20
2017,04,22,06,20,14.20
2017,04,22,06,21,14.20
2017,04,22,06,22,14.20
2017,04,22,06,23,14.20
2017,04,22,06,24,14.20
2017,04,22,06,25,14.20
2017,04,22,06,26,14.30
2017,04,22,06,27,14.30
2017,04,22,06,28,14.30
2017,04,22,06,29,14.40
2017,04,22,06,30,14.40
2017,04,22,06,31,14.40
2017,04,22,06,32,14.50
2017,04,22,06,33,14.50
2017,04,22,06,34,14.50
2017,04,22,06,35,14.50
2017,04,22,06,36,14.50
2017,04,22,06,37,14.50
2017,04,22,06,38,14.60
2017,04,22,06,39,14.60
2017,04,22,06,40,14.70
2017,04,22,06,41,14.70
2017,04,22,06,42,14.80
2017,04,22,06,43,14.80
2017,04,22,06,44,14.80
2017,04,22,06,45,14.80
2017,04,22,06,46,14.80
2017,04,22,06,47,14.80
2017,04,22,06,48,14.80
2017,04,22,06,49,14.80
2017,04,22,06,50,14.80
2017,04,22,06,51,14.80
2017,04,22,06,52,14.90
2017,04,22,06,53,14.90
2017,04,22,06,54,14.90
2017,04,22,06,55,14.90
2017,04,22,06,56,14.90
2017,04,22,06,57,14.90
2017,04,22,06,58,14.90
2017,04,22,06,59,14.80
2017,04,22,07,00,14.80
2017,04,22,07,01,14.80
2017,04,22,07,02,14.90
2017,04,22,07,03,14.90
2017,04,22,07,04,14.90
2017,04,22,07,05,14.90
2017,04,22,07,06,14.90
2017,04,22,07,07,14.90
2017,04,22,07,08,14.90
2017,04,22,07,09,14.90
2017,04,22,07,10,14.80
2017,04,22,07,11,14.80
2017,04,22,07,12,14.80
2017,04,22,07,13,14.80
2017,04,22,07,14,14.80
2017,04,22,07,15,14.80
2017,04,22,07,16,14.80
2017,04,22,07,17,14.80
2017,04,22,07,18,14.80
2017,04,22,07,19,14.80
2017,04,22,07,20,14.80
2017,04,22,07,21,14.80
2017,04,22,07,22,14.80
2017,04,22,07,23,14.80
2017,04,22,07,24,14.80
2017,04,22,07,25,14.90
2017,04,22,07,26,14.90
2017,04,22,07,27,14.90
2017,04,22,07,28,14.90
2017,04,22,07,29,14.90
2017,04,22,07,30,15.00
2017,04,22,07,31,15.00
2017,04,22,07,32,15.00
2017,04,22,07,33,15.00
2017,04,22,07,34,15.00
2017,04,22,07,35,15.00
2017,04,22,07,36,15.00
2017,04,22,07,37,15.00
2017,04,22,07,38,15.00
2017,04,22,07,39,15.00
2017,04,22,07,40,15.00
2017,04,22,07,41,15.00
2017,04,22,07,42,14.90
2017,04,22,07,43,14.90
2017,04,22,07,44,14.90
2017,04,22,07,45,14.90
2017,04,22,07,46,14.90
2017,04,22,07,47,14.90
2017,04,22,07,48,14.90
2017,04,22,07,49,14.90
2017,04,22,07,50,14.90
2017,04,22,07,51,14.90
2017,04,22,07,52,14.90
2017,04,22,07,53,14.90
2017,04,22,07,54,14.90
2017,04,22,07,55,14.90
2017,04,22,07,56,14.90
2017,04,22,07,57,14.90
2017,04,22,07,58,14.90
2017,04,22,07,59,14.90
2017,04,22,08,00,14.90
2017,04,22,08,01,14.90
2017,04,22,08,02,14.90
2017,04,22,08,03,15.00
2017,04,22,08,04,15.00
2017,04,22,08,05,15.00
2017,04,22,08,06,14.90
2017,04,22,08,07,14.90
2017,04,22,08,08,14.80
2017,04,22,08,09,14.80
2017,04,22,08,10,14.80
2017,04,22,08,11,14.70
2017,04,22,08,12,14.70
2017,04,22,08,13,14.70
2017,04,22,08,14,14.70
2017,04,22,08,15,14.70
2017,04,22,08,16,14.70
2017,04,22,08,17,14.60
2017,04,22,08,18,14.70
2017,04,22,08,19,14.70
2017,04,22,08,20,14.70
2017,04,22,08,21,14.70
2017,04,22,08,22,14.70
2017,04,22,08,23,14.70
2017,04,22,08,24,14.70
2017,04,22,08,25,14.70
2017,04,22,08,26,14.70
2017,04,22,08,27,14.80
2017,04,22,08,28,14.80
2017,04,22,08,29,14.80
2017,04,22,08,30,14.80
2017,04,22,08,31,14.80
2017,04,22,08,32,14.70
2017,04,22,08,33,14.70
2017,04,22,08,34,14.70
2017,04,22,08,35,14.80
2017,04,22,08,36,14.80
2017,04,22,08,37,14.80
2017,04,22,08,38,14.80
2017,04,22,08,39,14.80
2017,04,22,08,40,14.90
2017,04,22,08,41,14.90
2017,04,22,08,42,14.90
2017,04,22,08,43,14.90
2017,04,22,08,44,14.90
2017,04,22,08,45,14.80
2017,04,22,08,46,14.80
2017,04,22,08,47,14.80
2017,04,22,08,48,14.80
2017,04,22,08,49,14.90
2017,04,22,08,50,14.90
2017,04,22,08,51,14.90
2017,04,22,08,52,14.90
2017,04,22,08,53,14.90
2017,04,22,08,54,14.90
2017,04,22,08,55,14.90
2017,04,22,08,56,14.90
2017,04,22,08,57,14.90
2017,04,22,08,58,14.90
2017,04,22,08,59,14.90
2017,04,22,09,00,14.90
2017,04,22,09,01,14.90
2017,04,22,09,02,14.90
2017,04,22,09,03,14.90
2017,04,22,09,04,14.90
2017,04,22,09,05,14.90
2017,04,22,09,06,14.90
2017,04,22,09,07,14.90
2017,04,22,09,08,14.90
2017,04,22,09,09,14.90
2017,04,22,09,10,14.90
2017,04,22,09,11,14.90
2017,04,22,09,12,14.90
2017,04,22,09,13,15.00
2017,04,22,09,14,15.00
2017,04,22,09,15,15.00
2017,04,22,09,16,15.00
2017,04,22,09,17,15.00
2017,04,22,09,18,14.90
2017,04,22,09,19,14.90
2017,04,22,09,20,14.90
2017,04,22,09,21,14.90
2017,04,22,09,22,14.90
2017,04,22,09,23,14.90
2017,04,22,09,24,14.90
2017,04,22,09,25,14.80
2017,04,22,09,26,14.80
2017,04,22,09,27,14.80
2017,04,22,09,28,14.80
2017,04,22,09,29,14.90
2017,04,22,09,30,14.90
2017,04,22,09,31,14.90
2017,04,22,09,32,14.80
2017,04,22,09,33,14.80
2017,04,22,09,34,14.90
2017,04,22,09,35,14.90
2017,04,22,09,36,14.90
2017,04,22,09,37,14.90
2017,04,22,09,38,14.80
2017,04,22,09,39,14.80
2017,04,22,09,40,14.80
2017,04,22,09,41,14.80
2017,04,22,09,42,14.80
2017,04,22,09,43,14.90
2017,04,22,09,44,14.90
2017,04,22,09,45,14.90
2017,04,22,09,46,14.90
2017,04,22,09,47,14.90
2017,04,22,09,48,14.90
2017,04,22,09,49,14.80
2017,04,22,09,50,14.80
2017,04,22,09,51,14.80
2017,04,22,09,52,14.60
2017,04,22,09,53,14.00
2017,04,22,09,54,13.50
2017,04,22,09,55,13.00
2017,04,22,09,56,12.70
2017,04,22,09,57,12.50
2017,04,22,09,58,12.30
2017,04,22,09,59,12.20
2017,04,22,10,00,12.10
2017,04,22,10,01,12.00
2017,04,22,10,02,12.00
2017,04,22,10,03,12.00
2017,04,22,10,04,11.90
2017,04,22,10,05,11.90
2017,04,22,10,06,11.90
2017,04,22,10,07,11.90
2017,04,22,10,08,11.90
2017,04,22,10,09,11.90
2017,04,22,10,10,11.90
2017,04,22,10,11,11.90
2017,04,22,10,12,11.90
2017,04,22,10,13,12.00
2017,04,22,10,14,12.00
2017,04,22,10,15,12.10
2017,04,22,10,16,12.20
2017,04,22,10,17,12.20
2017,04,22,10,18,12.30
2017,04,22,10,19,12.30
2017,04,22,10,20,12.30
2017,04,22,10,21,12.40
2017,04,22,10,22,12.40
2017,04,22,10,23,12.40
2017,04,22,10,24,12.40
2017,04,22,10,25,12.50
2017,04,22,10,26,12.50
2017,04,22,10,27,12.50
2017,04,22,10,28,12.50
2017,04,22,10,29,12.50
2017,04,22,10,30,12.60
2017,04,22,10,31,12.60
2017,04,22,10,32,12.60
2017,04,22,10,33,12.60
2017,04,22,10,34,12.60
2017,04,22,10,35,12.60
2017,04,22,10,36,12.60
2017,04,22,10,37,12.60
2017,04,22,10,38,12.60
2017,04,22,10,39,12.60
2017,04,22,10,40,12.70
2017,04,22,10,41,12.70
2017,04,22,10,42,12.70
2017,04,22,10,43,12.70
2017,04,22,10,44,12.70
2017,04,22,10,45,12.70
2017,04,22,10,46,12.70
2017,04,22,10,47,12.70
2017,04,22,10,48,12.70
2017,04,22,10,49,12.70
2017,04,22,10,50,12.80
2017,04,22,10,51,12.80
2017,04,22,10,52,12.80
2017,04,22,10,53,12.80
2017,04,22,10,54,12.80
2017,04,22,10,55,12.80
2017,04,22,10,56,12.80
2017,04,22,10,57,12.90
2017,04,22,10,58,12.90
2017,04,22,10,59,12.90
2017,04,22,11,00,12.90
2017,04,22,11,01,12.90
2017,04,22,11,02,12.90
2017,04,22,11,03,12.90
2017,04,22,11,04,12.90
2017,04,22,11,05,12.90
2017,04,22,11,06,12.90
2017,04,22,11,07,12.90
2017,04,22,11,08,12.90
2017,04,22,11,09,12.90
2017,04,22,11,10,12.90
2017,04,22,11,11,12.90
2017,04,22,11,12,12.90
2017,04,22,11,13,12.90
2017,04,22,11,14,12.90
2017,04,22,11,15,12.90
2017,04,22,11,16,13.00
2017,04,22,11,17,13.00
2017,04,22,11,18,13.00
2017,04,22,11,19,13.00
2017,04,22,11,20,13.10
2017,04,22,11,21,13.10
2017,04,22,11,22,13.10
2017,04,22,11,23,13.10
2017,04,22,11,24,13.20
2017,04,22,11,25,13.20
2017,04,22,11,26,13.20
2017,04,22,11,27,13.20
2017,04,22,11,28,13.20
2017,04,22,11,29,13.20
2017,04,22,11,30,13.30
2017,04,22,11,31,13.30
2017,04,22,11,32,13.30
2017,04,22,11,33,13.30
2017,04,22,11,34,13.20
2017,04,22,11,35,13.20
2017,04,22,11,36,13.20
2017,04,22,11,37,13.20
2017,04,22,11,38,13.20
2017,04,22,11,39,13.10
2017,04,22,11,40,13.10
2017,04,22,11,41,13.10
2017,04,22,11,42,13.00
2017,04,22,11,43,13.00
2017,04,22,11,44,12.90
2017,04,22,11,45,12.80
2017,04,22,11,46,12.80
2017,04,22,11,47,12.70
2017,04,22,11,48,12.70
2017,04,22,11,49,12.60
2017,04,22,11,50,12.60
2017,04,22,11,51,12.50
2017,04,22,11,52,12.50
2017,04,22,11,53,12.40
2017,04,22,11,54,12.30
2017,04,22,11,55,12.30
2017,04,22,11,56,12.20
2017,04,22,11,57,12.00
2017,04,22,11,58,11.90
2017,04,22,11,59,11.80
2017,04,22,12,00,11.80
2017,04,22,12,01,11.70
2017,04,22,12,02,11.60
2017,04,22,12,03,11.50
2017,04,22,12,04,11.50
2017,04,22,12,05,11.40
2017,04,22,12,06,11.30
2017,04,22,12,07,11.20
2017,04,22,12,08,11.20
2017,04,22,12,09,11.20
2017,04,22,12,10,11.20
2017,04,22,12,11,11.20
2017,04,22,12,12,11.20
2017,04,22,12,13,11.10
2017,04,22,12,14,11.10
2017,04,22,12,15,11.10
2017,04,22,12,16,11.10
2017,04,22,12,17,11.00
2017,04,22,12,18,11.00
2017,04,22,12,19,11.00
2017,04,22,12,20,11.00
2017,04,22,12,21,11.00
2017,04,22,12,22,11.00
2017,04,22,12,23,11.00
2017,04,22,12,24,11.00
2017,04,22,12,25,11.00
2017,04,22,12,26,11.00
2017,04,22,12,27,11.00
2017,04,22,12,28,11.00
2017,04,22,12,29,11.10
2017,04,22,12,30,11.10
2017,04,22,12,31,11.10
2017,04,22,12,32,11.20
2017,04,22,12,33,11.20
2017,04,22,12,34,11.20
2017,04,22,12,35,11.20
2017,04,22,12,36,11.20
2017,04,22,12,37,11.30
2017,04,22,12,38,11.30
2017,04,22,12,39,11.30
2017,04,22,12,40,11.30
2017,04,22,12,41,11.40
2017,04,22,12,42,11.40
2017,04,22,12,43,11.40
2017,04,22,12,44,11.50
2017,04,22,12,45,11.50
2017,04,22,12,46,11.50
2017,04,22,12,47,11.60
2017,04,22,12,48,11.60
2017,04,22,12,49,11.60
2017,04,22,12,50,11.70
2017,04,22,12,51,11.70
2017,04,22,12,52,11.70
2017,04,22,12,53,11.80
2017,04,22,12,54,11.80
2017,04,22,12,55,11.90
2017,04,22,12,56,11.90
2017,04,22,12,57,12.00
2017,04,22,12,58,12.00
2017,04,22,12,59,12.00
2017,04,22,13,00,12.10
2017,04,22,13,01,12.10
2017,04,22,13,02,12.10
2017,04,22,13,03,12.10
2017,04,22,13,04,12.10
2017,04,22,13,05,12.10
2017,04,22,13,06,12.20
2017,04,22,13,07,12.20
2017,04,22,13,08,12.30
2017,04,22,13,09,12.30
2017,04,22,13,10,12.40
2017,04,22,13,11,12.40
2017,04,22,13,12,12.40
2017,04,22,13,13,12.50
2017,04,22,13,14,12.60
2017,04,22,13,15,12.60
2017,04,22,13,16,12.70
2017,04,22,13,17,12.80
2017,04,22,13,18,12.80
2017,04,22,13,19,12.90
2017,04,22,13,20,12.90
2017,04,22,13,21,13.00
2017,04,22,13,22,13.00
2017,04,22,13,23,13.00
2017,04,22,13,24,13.10
2017,04,22,13,25,13.10
2017,04,22,13,26,13.10
2017,04,22,13,27,13.10
2017,04,22,13,28,13.10
2017,04,22,13,29,13.20
2017,04,22,13,30,13.20
2017,04,22,13,31,13.30
2017,04,22,13,32,13.40
2017,04,22,13,33,13.40
2017,04,22,13,34,13.50
2017,04,22,13,35,13.50
2017,04,22,13,36,13.60
2017,04,22,13,37,13.60
2017,04,22,13,38,13.60
2017,04,22,13,39,13.70
2017,04,22,13,40,13.70
2017,04,22,13,41,13.70
2017,04,22,13,42,13.70
2017,04,22,13,43,13.60
2017,04,22,13,44,13.60
2017,04,22,13,45,13.50
2017,04,22,13,46,13.40
2017,04,22,13,47,13.40
2017,04,22,13,48,13.40
2017,04,22,13,49,13.30
2017,04,22,13,50,13.30
2017,04,22,13,51,13.40
2017,04,22,13,52,13.40
2017,04,22,13,53,13.40
2017,04,22,13,54,13.30
2017,04,22,13,55,13.40
2017,04,22,13,56,13.40
2017,04,22,13,57,13.40
2017,04,22,13,58,13.40
2017,04,22,13,59,13.50
2017,04,22,14,00,13.50
2017,04,22,14,01,13.60
2017,04,22,14,02,13.60
2017,04,22,14,03,13.70
2017,04,22,14,04,13.70
2017,04,22,14,05,13.80
2017,04,22,14,06,13.80
2017,04,22,14,07,13.90
2017,04,22,14,08,13.90
2017,04,22,14,09,13.90
2017,04,22,14,10,13.90
2017,04,22,14,11,13.90
2017,04,22,14,12,13.90
2017,04,22,14,13,13.90
2017,04,22,14,14,13.90
2017,04,22,14,15,13.90
2017,04,22,14,16,13.90
2017,04,22,14,17,13.90
2017,04,22,14,18,14.00
2017,04,22,14,19,14.00
2017,04,22,14,20,14.00
2017,04,22,14,21,14.10
2017,04,22,14,22,14.20
2017,04,22,14,23,14.30
2017,04,22,14,24,14.40
2017,04,22,14,25,14.50
2017,04,22,14,26,14.60
2017,04,22,14,27,14.70
2017,04,22,14,28,14.80
2017,04,22,14,29,14.90
2017,04,22,14,30,14.90
2017,04,22,14,31,14.90
2017,04,22,14,32,14.90
2017,04,22,14,33,14.80
2017,04,22,14,34,14.80
2017,04,22,14,35,14.80
2017,04,22,14,36,14.70
2017,04,22,14,37,14.70
2017,04,22,14,38,14.60
2017,04,22,14,39,14.60
2017,04,22,14,40,14.60
2017,04,22,14,41,14.60
2017,04,22,14,42,14.60
2017,04,22,14,43,14.60
2017,04,22,14,44,14.60
2017,04,22,14,45,14.50
2017,04,22,14,46,14.40
2017,04,22,14,47,14.40
2017,04,22,14,48,14.30
2017,04,22,14,49,14.30
2017,04,22,14,50,14.30
2017,04,22,14,51,14.20
2017,04,22,14,52,14.30
2017,04,22,14,53,14.30
2017,04,22,14,54,14.30
2017,04,22,14,55,14.30
2017,04,22,14,56,14.30
2017,04,22,14,57,14.30
2017,04,22,14,58,14.30
2017,04,22,14,59,14.20
2017,04,22,15,00,14.20
2017,04,22,15,01,14.20
2017,04,22,15,02,14.20
2017,04,22,15,03,14.10
2017,04,22,15,04,14.10
2017,04,22,15,05,14.10
2017,04,22,15,06,14.00
2017,04,22,15,07,13.90
2017,04,22,15,08,13.80
2017,04,22,15,09,13.60
2017,04,22,15,10,13.30
2017,04,22,15,11,12.90
2017,04,22,15,12,12.40
2017,04,22,15,13,12.10
2017,04,22,15,14,11.90
2017,04,22,15,15,11.70
2017,04,22,15,16,11.60
2017,04,22,15,17,11.50
2017,04,22,15,18,11.40
2017,04,22,15,19,11.40
2017,04,22,15,20,11.40
2017,04,22,15,21,11.40
2017,04,22,15,22,11.40
2017,04,22,15,23,11.40
2017,04,22,15,24,11.40
2017,04,22,15,25,11.50
2017,04,22,15,26,11.50
2017,04,22,15,27,11.60
2017,04,22,15,28,11.60
2017,04,22,15,29,11.60
2017,04,22,15,30,11.70
2017,04,22,15,31,11.70
2017,04,22,15,32,11.70
2017,04,22,15,33,11.80
2017,04,22,15,34,11.80
2017,04,22,15,35,11.90
2017,04,22,15,36,11.90
2017,04,22,15,37,11.90
2017,04,22,15,38,12.00
2017,04,22,15,39,12.00
2017,04,22,15,40,12.10
2017,04,22,15,41,12.10
2017,04,22,15,42,12.10
2017,04,22,15,43,12.10
2017,04,22,15,44,12.20
2017,04,22,15,45,12.20
2017,04,22,15,46,12.20
2017,04,22,15,47,12.20
2017,04,22,15,48,12.20
2017,04,22,15,49,12.30
2017,04,22,15,50,12.30
2017,04,22,15,51,12.30
2017,04,22,15,52,12.30
2017,04,22,15,53,12.20
2017,04,22,15,54,12.20
2017,04,22,15,55,12.20
2017,04,22,15,56,12.10
2017,04,22,15,57,12.10
2017,04,22,15,58,12.00
2017,04,22,15,59,12.00
2017,04,22,16,00,11.90
2017,04,22,16,01,11.90
2017,04,22,16,02,11.80
2017,04,22,16,03,11.80
2017,04,22,16,04,11.80
2017,04,22,16,05,11.70
2017,04,22,16,06,11.70
2017,04,22,16,07,11.70
2017,04,22,16,08,11.60
2017,04,22,16,09,11.60
2017,04,22,16,10,11.60
2017,04,22,16,11,11.50
2017,04,22,16,12,11.40
2017,04,22,16,13,11.40
2017,04,22,16,14,11.40
2017,04,22,16,15,11.30
2017,04,22,16,16,11.30
2017,04,22,16,17,11.30
2017,04,22,16,18,11.20
2017,04,22,16,19,11.20
2017,04,22,16,20,11.20
2017,04,22,16,21,11.20
2017,04,22,16,22,11.20
2017,04,22,16,23,11.20
2017,04,22,16,24,11.20
2017,04,22,16,25,11.20
2017,04,22,16,26,11.10
2017,04,22,16,27,11.10
2017,04,22,16,28,11.10
2017,04,22,16,29,11.00
2017,04,22,16,30,10.90
2017,04,22,16,31,10.90
2017,04,22,16,32,10.80
2017,04,22,16,33,10.80
2017,04,22,16,34,10.70
2017,04,22,16,35,10.70
2017,04,22,16,36,10.70
2017,04,22,16,37,10.70
2017,04,22,16,38,10.70
2017,04,22,16,39,10.70
2017,04,22,16,40,10.70
2017,04,22,16,41,10.70
2017,04,22,16,42,10.70
2017,04,22,16,43,10.70
2017,04,22,16,44,10.70
2017,04,22,16,45,10.80
2017,04,22,16,46,10.80
2017,04,22,16,47,10.80
2017,04,22,16,48,10.80
2017,04,22,16,49,10.80
2017,04,22,16,50,10.80
2017,04,22,16,51,10.80
2017,04,22,16,52,10.80
2017,04,22,16,53,10.80
2017,04,22,16,54,10.90
2017,04,22,16,55,10.90
2017,04,22,16,56,10.90
2017,04,22,16,57,10.90
2017,04,22,16,58,10.90
2017,04,22,16,59,10.90
2017,04,22,17,00,10.90
2017,04,22,17,01,10.90
2017,04,22,17,02,10.90
2017,04,22,17,03,10.90
2017,04,22,17,04,10.90
2017,04,22,17,05,11.00
2017,04,22,17,06,11.00
2017,04,22,17,07,11.00
2017,04,22,17,08,11.00
2017,04,22,17,09,10.90
2017,04,22,17,10,10.90
2017,04,22,17,11,11.00
2017,04,22,17,12,11.00
2017,04,22,17,13,11.00
2017,04,22,17,14,11.00
2017,04,22,17,15,11.00
2017,04,22,17,16,11.10
2017,04,22,17,17,11.10
2017,04,22,17,18,11.10
2017,04,22,17,19,11.10